This demonstration page uses our WeatherBlox Daily Observations layout. Learn more.

Left ArrowRight Arrow

Hourly Observations for July 16, 2018

Temp ( °F °C ) Dew Point ( °F °C ) Humidity (%) Winds ( mph kmh ) Pressure ( in mb ) Visibility ( mi km ) Precip ( " mm )
12:15 am 00:15 Clear 70 21.1 65 18.6 86 86 N N/A 30.03 1017 10 16 N/A
12:35 am 00:35 Partly Cloudy 70 21.2 65 18.2 83 83 ENE 5 7 30.03 1017 10 16 N/A
12:55 am 00:55 Partly Cloudy 70 21 64 18 83 83 NE 5 7 30.06 1018 10 16 N/A
1:15 am 01:15 Clear 69 20.3 64 18 87 87 N N/A 30.06 1018 10 16 N/A
1:35 am 01:35 Clear 67 19.7 65 18.1 91 91 N N/A 30.06 1018 10 16 N/A
1:55 am 01:55 Clear 68 19.8 65 18.2 91 91 N N/A 30.06 1018 10 16 N/A
2:15 am 02:15 Clear 67 19.5 64 18 91 91 ENE 3 6 30.06 1018 10 16 N/A
2:35 am 02:35 Clear 67 19.5 65 18.1 92 92 NE 5 7 30.06 1018 10 16 N/A
2:55 am 02:55 Clear 67 19.2 63 17.4 89 89 NE 3 6 30.06 1018 10 16 N/A
3:15 am 03:15 Clear 66 19 64 17.5 91 91 N N/A 30.03 1017 10 16 N/A
3:35 am 03:35 Clear 65 18.3 63 17.1 93 93 NE 3 6 30.03 1017 10 16 N/A
3:55 am 03:55 Clear 65 18.2 63 17 93 93 NE 5 7 30.03 1017 10 16 N/A
4:15 am 04:15 Clear 64 18 63 17 94 94 N N/A 30.03 1017 10 16 N/A
4:35 am 04:35 Clear 64 17.7 62 16.5 93 93 NNE 3 6 30.03 1017 10 16 N/A
4:55 am 04:55 Clear 64 17.6 62 16.4 93 93 NNE 3 6 30.03 1017 10 16 N/A
5:15 am 05:15 Clear 64 17.5 61 16 91 91 NNE 3 6 30.03 1017 10 16 N/A
5:35 am 05:35 Clear 63 17.3 61 15.9 92 92 NE 8 13 30.06 1018 10 16 N/A
5:55 am 05:55 Mostly Cloudy 64 17.5 60 15.5 88 88 NNE 3 6 30.09 1019 7 11 N/A
6:15 am 06:15 Mostly Cloudy 63 17.1 60 15.5 90 90 NE 5 7 30.09 1019 10 16 N/A
6:35 am 06:35 Mostly Cloudy 63 17 60 15.5 91 91 N N/A 30.09 1019 10 16 N/A
6:55 am 06:55 Cloudy 63 17.4 61 16 92 92 N N/A 30.09 1019 10 16 N/A
7:15 am 07:15 Cloudy 64 18 62 16.4 90 90 N N/A 30.06 1018 10 16 N/A
7:35 am 07:35 Cloudy 65 18.3 62 16.4 89 89 N N/A 30.06 1018 10 16 N/A
7:55 am 07:55 Cloudy 65 18.5 62 16.5 88 88 N N/A 30.06 1018 10 16 N/A
8:15 am 08:15 Cloudy 66 19 62 16.6 86 86 NE 3 6 30.06 1018 10 16 N/A
8:35 am 08:35 Cloudy 67 19.7 63 17.2 86 86 NE 5 7 30.06 1018 10 16 N/A
8:55 am 08:55 Cloudy 68 20.1 63 17.2 83 83 NNE 5 7 30.06 1018 10 16 N/A
9:15 am 09:15 Cloudy 69 20.8 64 17.8 83 83 ENE 5 7 30.06 1018 10 16 N/A
9:35 am 09:35 Mostly Cloudy 71 21.4 65 18.3 83 83 N N/A 30.03 1017 10 16 N/A
9:55 am 09:55 Mostly Cloudy 72 22 66 18.9 83 83 ENE 5 7 30.03 1017 10 16 N/A
10:15 am 10:15 Cloudy 72 22 67 19.4 85 85 NNE 6 9 30.06 1018 10 16 N/A
10:35 am 10:35 Mostly Cloudy 74 23.2 68 19.9 82 82 NNE 3 6 30.03 1017 10 16 N/A
10:55 am 10:55 Partly Cloudy 75 24 69 20.5 81 81 NE 6 9 30.03 1017 10 16 N/A
11:15 am 11:15 Sunny 76 24.5 69 20.6 79 79 NE 5 7 30.03 1017 10 16 N/A
11:35 am 11:35 Mostly Cloudy 77 25 70 20.9 78 78 E 6 9 30.00 1016 10 16 N/A
11:55 am 11:55 Partly Cloudy 78 25.7 71 21.5 78 78 ENE 5 7 30.00 1016 10 16 N/A
12:15 pm 12:15 Sunny 79 26.1 70 21.3 75 75 E 5 7 30.00 1016 10 16 N/A
12:35 pm 12:35 Sunny 80 26.5 71 21.4 74 74 ENE 5 7 30.00 1016 10 16 N/A
12:55 pm 12:55 Sunny 80 26.9 71 21.4 72 72 ENE 6 9 30.00 1016 10 16 N/A
1:15 pm 13:15 Partly Cloudy 82 27.7 71 21.6 69 69 NE 5 7 30.00 1016 10 16 N/A
1:35 pm 13:35 Mostly Cloudy 81 27.2 71 21.6 72 72 E 7 11 30.00 1016 10 16 N/A
1:55 pm 13:55 Partly Cloudy 82 28 72 22.1 70 70 ENE 7 11 29.94 1014 10 16 N/A
2:15 pm 14:15 Partly Cloudy 83 28.4 72 22.4 70 70 E 7 11 29.94 1014 10 16 N/A
2:35 pm 14:35 Partly Cloudy 84 28.7 72 22.1 68 68 ENE 7 11 29.94 1014 10 16 N/A
2:55 pm 14:55 Mostly Cloudy 82 28 71 21.8 69 69 E 7 11 29.94 1014 10 16 N/A
3:15 pm 15:15 Mostly Cloudy 83 28.4 72 22.1 69 69 ENE 6 9 29.94 1014 10 16 N/A
3:35 pm 15:35 Partly Cloudy 85 29.4 72 22.2 65 65 E 6 9 29.94 1014 10 16 N/A
3:55 pm 15:55 Partly Cloudy 84 29.1 71 21.4 63 63 ESE 6 9 29.94 1014 10 16 N/A
4:15 pm 16:15 Partly Cloudy 85 29.3 71 21.8 64 64 ESE 8 13 29.91 1013 10 16 N/A
4:35 pm 16:35 Partly Cloudy 85 29.7 71 21.4 61 61 ESE 8 13 29.91 1013 10 16 N/A
4:55 pm 16:55 Mostly Cloudy 85 29.4 71 21.5 63 63 ESE 3 6 29.91 1013 10 16 N/A
5:15 pm 17:15 Mostly Cloudy 87 30.3 71 21.5 59 59 ESE 6 9 29.91 1013 10 16 N/A
5:35 pm 17:35 Partly Cloudy 87 30.4 71 21.4 59 59 SSE 9 15 29.91 1013 10 16 N/A
5:55 pm 17:55 Partly Cloudy 86 30.1 70 21.3 59 59 ESE 8 13 29.88 1012 10 16 N/A
6:15 pm 18:15 Partly Cloudy 86 30 70 20.9 58 58 SE 7 11 29.88 1012 10 16 N/A
6:35 pm 18:35 Sunny 85 29.6 70 20.9 60 60 ESE 9 15 29.88 1012 10 16 N/A
6:55 pm 18:55 Sunny 83 28.2 69 20.6 63 63 SE 8 13 29.88 1012 10 16 N/A
7:15 pm 19:15 Sunny 82 28 69 20.8 65 65 SE 8 13 29.88 1012 10 16 N/A
7:35 pm 19:35 Sunny 83 28.1 71 21.5 67 67 SE 7 11 29.88 1012 10 16 N/A
7:55 pm 19:55 Sunny 84 28.7 71 21.6 66 66 SE 8 13 29.88 1012 10 16 N/A
8:15 pm 20:15 Sunny 82 28 71 21.8 69 69 ESE 6 9 29.88 1012 10 16 N/A
8:35 pm 20:35 Sunny 81 27.3 71 21.7 72 72 SE 9 15 29.88 1012 10 16 N/A
8:55 pm 20:55 Sunny 80 26.6 71 21.8 75 75 ESE 8 13 29.91 1013 10 16 N/A
9:15 pm 21:15 Clear 80 26.5 72 22 76 76 ESE 7 11 29.91 1013 10 16 N/A
9:35 pm 21:35 Clear 80 26.5 72 22 76 76 ESE 9 15 29.91 1013 10 16 N/A
9:55 pm 21:55 Clear 79 25.9 72 22 79 79 SE 7 11 29.94 1014 10 16 N/A
10:15 pm 22:15 Clear 78 25.5 72 22 81 81 SE 6 9 29.94 1014 10 16 N/A
10:35 pm 22:35 Clear 77 25.2 72 22 82 82 SE 7 11 29.94 1014 10 16 N/A
10:55 pm 22:55 Clear 75 24.1 71 21.7 87 87 SE 5 7 30.00 1016 10 16 N/A
11:15 pm 23:15 Clear 76 24.4 71 21.7 85 85 ESE 6 9 29.94 1014 10 16 N/A
11:35 pm 23:35 Clear 76 24.4 71 21.7 85 85 ESE 7 11 29.94 1014 10 16 N/A
11:55 pm 23:55 Clear 76 24.4 71 21.9 86 86 SE 10 17 29.94 1014 10 16 N/A

Powered by AerisWeather